Overview Statistics Trail Chart Weather Telemetry Raw packets
 

This is the latest recevied weather packets stored in our database for station/object OE5MMP-13. If no packets are shown the sender has not sent any weather packets the latest 10 day(s).

<< 1 2 3 4 5 >>
Time Temp. Humidity Pressure Rain* Wind** Luminosity Snow
1788663791 12.78° C 79% 1026.6 hPa 0 mm - 0 W/m² -
1788663191 12.78° C 79% 1026.4 hPa 0 mm - 0 W/m² -
1788662591 13.33° C 78% 1026.6 hPa 0 mm - 0 W/m² -
1788661991 13.33° C 79% 1026.6 hPa 0 mm - 0 W/m² -
1788661391 13.33° C 80% 1026.6 hPa 0 mm - 0 W/m² -
1788660791 13.33° C 80% 1026.4 hPa 0 mm - 0 W/m² -
1788660191 13.33° C 80% 1026.2 hPa 0 mm - 0 W/m² -
1788659591 13.33° C 80% 1026.2 hPa 0 mm - 0 W/m² -
1788658990 13.89° C 79% 1026.3 hPa 0 mm - 0 W/m² -
1788658391 14.44° C 77% 1026.4 hPa 0 mm - 0 W/m² -
1788657790 14.44° C 76% 1026.4 hPa 0 mm - 0 W/m² -
1788657190 15° C 76% 1026.4 hPa 0 mm - 0 W/m² -
1788656590 14.44° C 77% 1026.4 hPa 0 mm - 0 W/m² -
1788655990 15° C 76% 1026.4 hPa 0 mm - 0 W/m² -
1788655391 15° C 76% 1026.2 hPa 0 mm - 0 W/m² -
1788654790 15° C 76% 1026.2 hPa 0 mm - 0 W/m² -
1788654191 15.56° C 75% 1026.1 hPa 0 mm - 0 W/m² -
1788653590 15.56° C 75% 1026.1 hPa 0 mm - 0 W/m² -
1788652990 15.56° C 74% 1026 hPa 0 mm - 0 W/m² -
1788652390 15.56° C 72% 1025.9 hPa 0 mm - 0 W/m² -
1788651790 15.56° C 74% 1025.8 hPa 0 mm - 0 W/m² -
1788651191 16.11° C 73% 1025.9 hPa 0 mm - 0 W/m² -
1788650590 16.11° C 72% 1025.9 hPa 0 mm - 0 W/m² -
1788649990 16.67° C 72% 1025.8 hPa 0 mm - 0 W/m² -
1788649390 16.67° C 71% 1025.8 hPa 0 mm - 0 W/m² -

* Rain latest hour (hover to see other rain measurements)
** Current wind speed in m/s (hover to see current wind gust speed)